CAPE
2 0 0 0 0 1 0 0 0 1 0 1 1 0 1 1 1 1 2 3 2 2 2 1 0 0 0 0 0 0 350 501 0 0 0 0 0 0 0 0 4 42 113 229 178 415 432
4 4 4 3 0 0 1 0 2 1 1 1 0 0 0 1 1 2 4 3 4 2 1 0 0 0 0 0 0 0 0 0 0 0 0 0 0 0 0 0 37 266 483 318 183 145 25
5 6 2 0 0 1 1 0 0 2 2 1 1 0 3 1 3 5 2 1 2 1 0 0 0 0 0 0 0 0 0 0 0 0 0 0 0 0 0 82 195 273 257 165 198 424 114
12 14 12 11 0 0 0 3 0 1 0 1 0 0 0 0 0 1 1 2 1 0 0 0 0 0 0 0 0 0 0 0 0 0 0 0 0 0 0 6 10 51 0 33 286 287 284
15 13 11 2 2 0 0 1 0 1 0 0 0 0 0 0 1 1 1 1 0 0 0 0 0 0 0 0 0 0 0 0 0 0 0 0 0 0 0 0 0 0 1 1 185 498 354
12 12 4 3 5 0 0 0 0 0 0 0 0 0 0 1 1 1 0 0 0 0 0 0 0 0 0 0 0 0 0 0 0 0 0 0 0 0 0 0 15 3 1 2 16 193 146
8 0 4 6 4 1 1 0 0 0 0 0 0 0 0 0 0 0 0 0 0 0 0 0 0 0 0 0 0 0 0 0 0 0 0 0 5 7 0 0 2 0 0 0 15 236 218
0 1 2 0 0 2 0 0 0 0 1 0 0 0 0 0 0 0 0 0 0 0 0 0 0 0 0 0 0 0 0 0 0 0 0 0 19 0 25 5 3 9 2 4 9 1 155
1 1 1 2 1 1 1 0 0 0 0 0 1 0 0 0 0 0 0 0 0 0 0 0 0 0 0 0 0 0 0 0 0 0 0 0 4 46 60 17 28 1 3 0 27 44 24
2 3 3 1 2 1 0 0 0 0 0 0 1 0 0 1 0 0 0 0 0 0 0 0 0 0 0 0 0 0 0 0 0 0 0 0 0 84 54 22 0 4 12 0 22 1 8
0 1 1 1 1 0 0 0 0 0 0 0 0 0 0 0 0 0 0 0 0 0 0 0 0 0 0 0 0 0 0 0 0 0 0 8 9 12 30 72 0 2 0 0 2 0 0
0 2 2 3 1 2 0 0 0 0 0 0 0 0 0 0 0 0 0 0 0 0 0 0 0 0 0 0 0 0 0 0 0 0 0 0 0 22 17 11 13 5 1 0 0 0 4
0 0 2 2 2 0 0 0 0 0 0 0 0 0 0 0 0 0 0 0 0 0 0 0 0 0 0 0 0 0 0 0 0 0 0 0 0 31 6 0 0 0 0 0 0 3 14
0 0 0 0 0 0 0 0 0 0 0 0 0 0 0 0 0 0 0 0 0 0 0 0 0 0 0 0 0 0 0 0 0 0 0 0 0 0 26 12 7 17 0 1 0 2 0
0 5 0 0 0 0 0 0 0 0 0 0 0 0 0 0 0 0 0 0 0 0 0 0 0 0 0 0 0 0 0 0 0 0 0 0 0 0 0 0 0 0 0 0 0 0 21
0 5 1 1 0 0 0 0 0 0 0 0 0 0 0 0 0 0 0 0 0 0 0 0 0 0 0 0 0 0 0 0 0 0 0 0 0 0 0 0 0 0 0 0 0 0 507
7 1 1 0 0 0 0 0 0 0 0 0 0 0 0 0 0 0 0 0 0 0 0 0 0 0 0 0 0 0 0 0 0 0 0 0 0 0 0 0 0 0 0 0 0 0 262
7 8 2 0 0 1 0 0 0 0 0 0 0 0 0 0 0 0 0 0 0 0 0 0 0 0 0 0 0 0 0 0 0 0 0 0 0 0 0 0 0 0 0 0 0 0 0
9 10 0 1 2 1 2 0 0 0 0 0 0 0 0 0 0 0 0 0 0 0 0 0 0 0 0 0 0 0 0 0 0 0 0 0 0 0 0 0 0 0 0 0 0 0 6
10 5 2 4 2 3 1 0 0 0 0 0 0 0 0 0 0 0 0 0 0 0 0 0 0 0 0 0 0 0 1 1 0 0 71 0 0 0 0 0 0 0 6 0 0 0 0
8 6 4 4 1 5 0 0 0 0 0 0 0 0 0 0 0 0 0 0 0 0 0 0 0 0 0 0 0 21 95 53 28 16 0 0 0 0 0 0 0 0 2 9 0 0 0
3 10 4 3 4 0 0 0 0 0 0 0 0 0 0 0 0 0 0 0 0 0 0 0 0 0 0 0 0 53 171 103 95 38 0 0 0 0 0 0 0 0 0 0 0 1 0
3 2 2 2 0 0 0 1 0 0 0 0 0 0 0 0 0 0 0 0 0 0 0 0 0 0 0 0 18 41 36 8 3 0 0 0 0 0 0 0 0 0 79 57 75 8 0
3 2 0 0 0 0 1 2 2 0 0 0 0 0 0 0 0 0 0 0 0 0 0 0 0 0 0 0 2 0 27 41 17 8 0 31 0 0 0 0 0 0 34 141 83 37 8
7 6 5 4 0 1 4 4 2 0 0 0 0 0 0 0 0 0 0 0 0 0 0 13 1 0 0 27 185 151 135 55 160 7 0 18 0 0 0 0 0 160 34 0 4 89 3
2 4 4 5 3 4 2 4 4 1 0 0 0 0 0 0 0 0 0 0 0 0 0 77 1 0 2 48 70 123 258 287 378 123 2 3 2 57 118 148 10 139 35 17 0 303 41
5 2 1 0 3 4 4 3 3 5 0 0 0 0 0 0 0 0 0 0 0 0 18 0 0 27 25 140 133 251 136 301 183 118 34 3 0 16 1 0 112 7 4 25 0 0 95
0 5 2 0 0 2 1 4 6 4 3 1 0 0 0 0 0 0 0 0 0 0 0 0 0 52 237 181 228 137 73 112 228 105 114 1 13 210 67 61 151 186 54 358 212 171 63
0 0 0 3 0 0 1 6 4 0 0 0 0 0 0 0 0 0 0 0 0 0 0 0 75 54 184 126 128 135 388 35 61 26 97 272 100 39 40 332 317 249 160 227 37 40 141
CIN
-2 -0 -0 -0 -0 -0 -0 -0 -0 -0 -0 -0 -0 -0 -0 -0 -0 -0 -0 -0 -0 -0 -0 -0 -0 -0 -0 -0 -0 -0 -789 -750 -0 -0 -0 -0 -0 -0 -0 -0 -8 -139 -90 -108 -184 -135 -79
-7 -7 -6 -5 -0 -0 -0 -0 -0 -0 -0 -0 -0 -0 -0 -0 -0 -0 -0 -0 -0 -0 -0 -0 -0 -0 -0 -0 -0 -0 -0 -0 -0 -0 -0 -0 -0 -0 -0 -0 -93 -177 -169 -143 -167 -203 -208
-2 -1 -0 -0 -0 -0 -0 -0 -0 -0 -0 -0 -0 -0 -0 -0 -0 -0 -0 -0 -0 -0 -0 -0 -0 -0 -0 -0 -0 -0 -0 -0 -0 -0 -0 -0 -0 -0 -0 -107 -132 -142 -167 -198 -242 -198 -206
-11 -9 -8 -11 -0 -0 -0 -0 -0 -0 -0 -0 -0 -0 -0 -0 -0 -0 -0 -0 -0 -0 -0 -0 -0 -0 -0 -0 -0 -0 -0 -0 -0 -0 -0 -0 -0 -0 -0 -56 -82 -126 -0 -131 -268 -274 -253
-12 -17 -17 -9 -0 -0 -0 -0 -0 -0 -0 -0 -0 -0 -0 -0 -0 -0 -0 -0 -0 -0 -0 -0 -0 -0 -0 -0 -0 -0 -0 -0 -0 -0 -0 -0 -0 -0 -0 -0 -0 -0 -52 -66 -164 -247 -238
-10 -11 -8 -0 -0 -0 -0 -0 -0 -0 -0 -0 -0 -0 -0 -0 -0 -0 -0 -0 -0 -0 -0 -0 -0 -0 -0 -0 -0 -0 -0 -0 -0 -0 -0 -0 -0 -0 -0 -0 -87 -47 -60 -10 -137 -162 -226
-9 -0 -0 -0 -0 -0 -0 -0 -0 -0 -0 -0 -0 -0 -0 -0 -0 -0 -0 -0 -0 -0 -0 -0 -0 -0 -0 -0 -0 -0 -0 -0 -0 -0 -0 -0 -235 -200 -0 -0 -65 -0 -0 -0 -165 -158 -206
-0 -0 -0 -0 -0 -1 -0 -0 -0 -0 -0 -0 -0 -0 -0 -0 -0 -0 -0 -0 -0 -0 -0 -0 -0 -0 -0 -0 -0 -0 -0 -0 -0 -0 -0 -0 -205 -0 -233 -203 -99 -171 -151 -81 -116 -112 -160
-0 -0 -0 -3 -1 -4 -0 -0 -0 -0 -0 -0 -0 -0 -0 -0 -0 -0 -0 -0 -0 -0 -0 -0 -0 -0 -0 -0 -0 -0 -0 -0 -0 -0 -0 -36 -63 -203 -125 -171 -187 -9 -91 -0 -70 -85 -211
-1 -1 -1 -1 -4 -3 -2 -0 -0 -0 -0 -0 -0 -0 -0 -0 -0 -0 -0 -0 -0 -0 -0 -0 -0 -0 -0 -0 -0 -0 -0 -0 -0 -0 -0 -0 -0 -133 -184 -155 -23 -151 -149 -32 -90 -85 -73
-0 -1 -1 -1 -2 -0 -1 -0 -0 -0 -0 -0 -0 -0 -0 -0 -0 -0 -0 -0 -0 -0 -0 -0 -0 -0 -0 -0 -0 -0 -0 -0 -0 -0 -0 -144 -142 -136 -181 -107 -9 -137 -0 -0 -72 -0 -0
-0 -3 -0 -1 -2 -6 -3 -0 -0 -0 -0 -0 -0 -0 -0 -0 -0 -0 -0 -0 -0 -0 -0 -0 -0 -0 -0 -0 -0 -0 -0 -0 -0 -0 -0 -0 -0 -178 -111 -111 -222 -51 -9 -0 -0 -0 -117
-0 -0 -1 -3 -4 -0 -10 -0 -0 -0 -0 -0 -0 -0 -0 -0 -0 -0 -0 -0 -0 -0 -0 -0 -0 -0 -0 -0 -0 -0 -0 -0 -0 -0 -0 -0 -0 -186 -184 -21 -82 -0 -0 -0 -0 -34 -48
-0 -0 -0 -1 -1 -0 -0 -0 -0 -0 -0 -0 -0 -0 -0 -0 -0 -0 -0 -0 -0 -0 -0 -0 -0 -0 -0 -0 -0 -0 -0 -0 -0 -0 -0 -0 -0 -0 -156 -185 -94 -104 -0 -19 -0 -61 -0
-0 -9 -0 -0 -0 -0 -0 -0 -0 -0 -0 -0 -0 -0 -0 -0 -0 -0 -0 -0 -0 -0 -0 -0 -0 -0 -0 -0 -0 -0 -0 -0 -0 -0 -0 -0 -0 -0 -0 -0 -0 -1 -0 -0 -0 -0 -20
-0 -7 -0 -5 -0 -0 -0 -0 -0 -0 -0 -0 -0 -0 -0 -0 -0 -0 -0 -0 -0 -0 -0 -0 -0 -0 -0 -0 -0 -0 -0 -0 -0 -0 -0 -0 -0 -0 -0 -0 -0 -0 -0 -0 -0 -0 -45
-12 -0 -2 -1 -0 -0 -0 -0 -0 -0 -0 -0 -0 -0 -0 -0 -0 -0 -0 -0 -0 -0 -0 -0 -0 -0 -0 -0 -0 -0 -0 -0 -0 -0 -0 -0 -0 -0 -0 -0 -0 -0 -0 -0 -0 -0 -51
-12 -9 -12 -0 -0 -0 -0 -2 -0 -0 -0 -0 -0 -0 -0 -0 -0 -0 -0 -0 -0 -0 -0 -0 -0 -0 -0 -0 -0 -0 -0 -0 -0 -0 -0 -0 -0 -0 -0 -0 -0 -0 -0 -0 -0 -0 -0
-10 -12 -5 -3 -2 -0 -3 -0 -0 -0 -0 -0 -0 -0 -0 -0 -0 -0 -0 -0 -0 -0 -0 -0 -0 -0 -0 -0 -0 -0 -0 -0 -0 -0 -0 -0 -0 -0 -0 -0 -0 -0 -0 -0 -0 -0 -78
-3 -1 -0 -3 -1 -3 -3 -0 -0 -0 -0 -0 -0 -0 -0 -0 -0 -0 -0 -0 -0 -0 -0 -0 -0 -0 -0 -0 -0 -0 -65 -48 -0 -0 -242 -0 -0 -0 -0 -0 -0 -3 -76 -0 -0 -0 -0
-2 -0 -0 -3 -2 -2 -0 -0 -0 -0 -0 -0 -0 -0 -0 -0 -0 -0 -0 -0 -0 -0 -0 -0 -0 -0 -0 -0 -0 -139 -182 -183 -214 -420 -0 -0 -0 -0 -0 -0 -0 -0 -41 -40 -0 -0 -0
-2 -0 -12 -1 -2 -6 -0 -0 -0 -0 -0 -0 -0 -0 -0 -0 -0 -0 -0 -0 -0 -0 -0 -0 -0 -0 -0 -0 -0 -81 -165 -206 -218 -285 -0 -0 -0 -0 -0 -0 -0 -0 -0 -0 -0 -13 -0
-0 -0 -0 -1 -0 -0 -0 -1 -0 -0 -0 -0 -0 -0 -0 -0 -0 -0 -0 -0 -0 -0 -0 -0 -0 -0 -0 -22 -262 -247 -334 -382 -144 -0 -0 -0 -0 -0 -0 -0 -0 -0 -148 -109 -214 -383 -0
-0 -0 -0 -0 -0 -0 -0 -0 -1 -0 -0 -0 -0 -0 -0 -0 -0 -0 -0 -0 -0 -0 -0 -0 -0 -0 -0 -0 -99 -0 -316 -340 -470 -372 -0 -250 -0 -0 -0 -0 -0 -0 -292 -226 -290 -361 -443
-0 -0 -0 -0 -0 -0 -0 -0 -0 -0 -0 -0 -0 -0 -0 -0 -0 -0 -0 -0 -0 -0 -0 -176 -243 -0 -0 -234 -190 -198 -202 -221 -343 -486 -0 -670 -0 -0 -0 -0 -0 -154 -244 -0 -23 -246 -427
-0 -0 -0 -0 -0 -0 -0 -0 -0 -0 -0 -0 -0 -0 -0 -0 -0 -0 -0 -0 -0 -0 -0 -289 -29 -0 -27 -144 -83 -227 -149 -330 -197 -294 -623 -176 -310 -256 -250 -48 -46 -211 -381 -407 -12 -122 -337
-0 -0 -0 -0 -0 -0 -0 -0 -0 -0 -1 -0 -0 -0 -0 -0 -0 -0 -0 -0 -0 -0 -210 -0 -0 -227 -395 -190 -147 -148 -279 -237 -257 -337 -536 -305 -0 -374 -23 -0 -168 -268 -582 -488 -0 -0 -383
-0 -0 -0 -0 -0 -0 -0 -0 -0 -0 -0 -0 -0 -0 -0 -0 -0 -0 -0 -0 -0 -0 -0 -0 -0 -316 -270 -252 -221 -229 -249 -316 -275 -387 -392 -131 -64 -283 -197 -253 -97 -376 -281 -146 -305 -453 -392
-0 -0 -0 -0 -0 -0 -0 -0 -0 -0 -0 -0 -0 -0 -0 -0 -0 -0 -0 -0 -0 -0 -0 -0 -158 -302 -301 -304 -328 -339 -168 -322 -388 -256 -411 -298 -377 -350 -332 -233 -282 -365 -387 -362 -522 -587 -341
Wind_Speed
10 9 10 11 11 15 16 17 18 18 18 19 19 19 20 21 22 22 21 21 20 20 19 16 15 13 4 2 10 3 7 5 5 3 2 2 5 2 3 7 2 17 11 13 14 12 10
9 10 10 11 11 15 16 17 17 18 18 19 20 20 21 22 22 23 22 23 21 20 18 15 12 10 1 3 4 8 9 5 4 3 1 5 8 2 8 7 6 8 11 8 15 11 9
11 11 13 16 11 15 15 18 18 17 18 20 20 21 21 22 21 22 24 25 24 21 18 13 9 4 1 14 3 5 9 6 4 4 4 6 4 2 7 9 5 13 8 7 6 5 6
11 11 10 11 12 15 16 17 18 17 19 18 16 17 18 19 21 21 25 25 24 22 15 11 5 2 9 7 5 6 4 3 5 8 6 11 3 8 1 5 6 7 7 4 4 1 4
11 12 11 12 12 16 17 15 18 16 16 16 18 19 20 21 21 21 26 27 26 15 6 3 2 2 11 10 3 8 9 5 5 7 7 12 2 1 6 6 4 6 2 4 3 6 5
11 12 12 12 12 16 17 18 17 16 17 18 19 20 21 22 22 22 28 25 11 5 3 5 5 3 6 5 4 4 6 7 5 4 6 2 6 4 5 6 4 8 3 1 4 3 4
10 11 12 13 14 17 18 19 18 17 18 19 19 21 23 23 22 20 16 6 5 4 1 9 6 5 6 4 3 3 4 3 0 4 4 7 7 2 2 2 6 2 1 4 6 9 6
10 10 11 15 16 15 19 19 18 18 19 19 20 21 24 26 25 22 2 2 7 3 8 10 14 10 14 4 6 7 6 5 4 5 3 6 4 5 1 6 2 4 7 7 5 7 6
9 10 11 12 15 14 18 20 19 19 19 19 20 21 23 28 30 1 3 7 9 6 2 9 8 7 6 9 8 11 11 6 4 4 5 5 6 9 5 5 5 3 4 7 6 2 6
10 10 12 14 14 16 17 21 21 20 20 19 20 20 20 31 4 6 7 4 8 4 5 9 4 9 4 7 6 9 9 8 3 9 5 6 3 9 9 6 2 5 15 13 14 9 6
15 15 15 15 15 19 18 22 21 19 20 20 21 19 14 7 7 4 8 11 13 6 2 4 4 3 7 9 3 2 3 5 7 6 6 11 4 7 6 8 5 12 12 11 4 6 5
10 13 15 14 17 15 16 19 19 19 20 21 22 19 15 1 2 11 10 10 5 7 6 3 7 7 5 2 5 2 4 3 7 6 3 10 4 6 9 6 11 4 6 1 5 5 4
12 12 16 14 15 15 17 17 18 20 21 23 24 22 5 3 7 3 6 5 7 4 6 3 6 6 6 6 4 5 4 1 8 4 5 8 5 6 4 3 5 5 7 3 4 5 5
13 12 17 16 14 15 17 17 18 20 22 26 25 28 4 8 6 4 3 7 3 4 7 6 3 5 9 6 6 5 3 4 5 5 4 4 9 7 7 8 9 2 8 7 6 4 3
12 12 16 17 13 15 16 17 18 20 23 26 25 3 3 6 11 0 7 3 7 6 3 9 5 6 4 5 6 7 9 8 10 11 10 5 9 9 6 7 10 10 4 8 7 3 4
13 12 16 12 13 14 15 16 17 20 24 26 5 5 5 6 10 5 6 6 6 3 6 5 5 5 2 6 6 8 5 7 8 12 7 8 5 9 15 1 6 11 6 1 4 2 2
13 15 13 11 12 13 14 15 16 19 24 26 2 5 5 10 4 7 4 7 7 7 4 3 4 2 3 2 6 4 9 7 10 14 10 8 6 19 2 5 10 2 2 4 7 7 7
13 10 10 10 13 12 13 12 14 17 24 7 4 3 2 6 5 1 3 6 5 9 4 9 8 3 3 2 4 4 10 10 13 10 10 13 9 9 14 8 7 9 12 8 7 4 2
12 11 9 10 11 11 12 11 12 13 11 5 4 5 5 4 2 2 6 7 6 9 9 7 4 3 4 2 4 4 7 9 12 11 12 7 4 7 12 10 7 3 4 6 5 5 6
11 10 8 9 9 10 10 11 11 11 6 1 2 4 5 4 1 2 5 9 5 5 13 7 6 5 7 8 1 6 6 7 7 10 10 12 5 9 12 10 5 2 3 1 6 4 4
11 7 8 6 8 7 9 11 12 13 10 4 2 3 1 3 4 5 3 6 13 10 3 7 2 4 4 3 7 3 4 9 8 9 3 7 7 6 7 6 4 5 8 4 6 7 8
9 7 4 5 5 5 8 10 13 16 13 0 0 3 5 4 4 5 3 3 7 6 3 4 6 9 4 2 4 3 1 1 2 8 10 8 1 3 3 2 2 5 7 3 2 4 6
6 4 3 2 3 5 8 10 12 15 12 3 4 4 4 5 5 4 3 8 4 4 5 4 5 6 12 7 6 6 2 4 5 7 6 4 4 5 6 5 6 5 3 3 5 1 4
7 3 3 3 5 6 8 10 12 12 8 2 4 2 3 5 2 4 6 9 9 6 4 5 5 2 4 4 3 4 4 9 12 8 2 4 4 3 4 4 1 4 7 7 10 8 9
12 9 7 6 7 7 8 10 10 10 9 2 3 2 1 4 2 8 13 8 9 7 4 3 2 1 5 1 5 8 6 4 6 6 11 8 2 4 4 3 2 3 6 6 5 4 5
13 13 11 9 8 9 10 11 11 11 12 2 3 2 1 2 4 4 5 3 3 4 7 4 4 7 7 2 4 5 2 3 5 8 4 11 8 5 3 4 3 2 8 7 2 6 2
11 11 10 10 10 10 11 12 13 13 13 4 4 2 1 1 6 3 2 3 4 3 1 5 9 10 7 4 5 4 2 2 1 2 6 5 5 4 4 3 2 4 14 4 5 7 2
10 10 10 10 10 9 10 12 13 13 16 8 6 3 2 2 8 5 4 3 3 1 2 5 5 5 6 6 4 2 2 3 3 5 5 4 3 2 2 2 3 6 8 6 6 6 5
10 10 11 11 9 9 10 10 12 13 14 13 3 4 3 3 8 3 13 18 14 17 1 2 5 2 4 4 2 2 2 3 4 2 1 3 7 8 7 5 4 3 6 5 3 4 3
Wind_Direction
17 10 359 353 357 5 1 359 358 356 352 349 346 341 338 335 333 329 323 320 318 320 319 317 315 320 323 350 250 191 128 128 139 189 197 348 339 296 330 319 298 104 86 84 70 58 80
348 346 345 344 352 1 360 357 354 355 352 348 344 341 337 333 330 326 321 317 314 316 313 309 309 316 309 298 246 153 144 137 215 172 222 165 237 237 278 280 123 146 105 104 86 81 52
1 355 3 4 6 2 358 355 355 353 352 348 343 340 334 331 325 322 320 316 310 312 307 299 297 287 299 234 87 155 160 190 189 176 236 234 245 101 305 56 159 122 83 43 27 27 87
352 354 355 6 4 358 354 354 357 352 350 346 335 323 321 319 318 318 320 311 305 306 297 282 256 238 252 253 138 181 242 252 230 231 217 263 214 238 178 114 12 41 52 70 327 148 84
359 357 1 3 354 355 351 349 351 340 332 328 326 323 322 320 318 319 319 308 303 295 235 185 167 192 269 304 180 214 174 207 222 270 256 272 334 328 42 113 39 4 132 121 276 244 116
1 357 357 355 351 353 350 346 333 328 326 325 325 325 322 321 318 322 320 302 287 304 185 193 256 346 281 245 238 172 195 201 209 298 339 3 47 55 28 67 173 236 187 64 187 220 188
358 357 353 350 349 351 346 344 336 329 327 326 324 323 322 321 319 324 337 359 14 16 144 200 202 252 284 320 339 256 214 186 125 32 292 304 59 181 246 178 207 115 26 164 256 178 168
351 349 351 353 350 345 344 340 333 328 326 326 325 323 322 321 320 322 179 76 219 157 304 232 241 247 267 72 311 251 118 146 123 239 342 357 286 190 92 44 91 64 284 234 311 275 144
343 341 339 341 342 340 341 338 332 327 323 324 325 323 324 321 320 110 207 238 283 51 322 287 205 212 223 140 222 248 138 181 167 250 264 191 233 155 92 340 299 10 200 253 198 85 44
336 334 332 337 333 334 336 337 333 324 321 322 323 324 329 329 16 325 274 297 318 159 46 277 217 261 176 166 275 206 162 148 184 209 247 238 254 166 133 179 107 336 279 269 237 147 197
331 333 332 331 330 333 333 334 329 322 319 320 320 321 326 330 297 304 267 344 321 61 16 231 185 197 147 144 208 232 194 92 193 228 114 254 176 158 171 224 124 244 277 274 158 132 105
320 329 327 327 327 322 323 329 322 320 319 318 316 317 324 106 230 243 320 311 37 50 261 272 155 177 127 172 222 275 141 112 185 212 230 241 198 173 202 217 181 240 275 320 43 88 50
311 315 328 324 320 321 319 319 321 320 319 317 314 308 298 257 232 55 312 42 50 155 311 236 179 155 168 173 226 152 237 241 185 179 270 287 219 235 239 247 324 97 78 311 0 16 204
305 306 324 324 318 319 319 319 322 321 321 318 315 311 241 205 240 277 38 57 177 251 250 299 15 76 171 166 245 208 202 241 263 140 165 216 298 190 223 193 184 267 143 162 204 208 190
301 301 318 320 316 319 318 320 323 325 324 320 317 321 243 247 194 204 76 94 210 228 333 346 335 125 243 217 181 164 195 207 207 172 180 183 263 273 200 221 160 230 198 201 115 33 92
296 304 315 314 316 318 318 322 328 331 327 325 323 331 263 129 145 79 78 232 241 255 344 18 347 63 6 297 167 148 213 210 221 192 160 220 275 232 274 65 276 188 194 108 21 94 86
289 311 310 312 317 316 320 324 335 337 331 325 9 343 262 130 94 54 161 233 284 273 332 359 268 181 201 215 186 242 225 251 212 215 164 160 144 270 94 197 245 313 206 83 117 135 158
300 297 302 304 314 316 319 329 342 343 337 29 346 340 288 122 70 142 183 213 258 282 287 259 216 133 203 200 283 242 225 218 199 182 173 197 160 240 232 254 229 195 191 147 125 252 184
295 299 299 299 306 317 319 339 343 348 25 332 336 270 282 101 139 286 287 279 250 269 266 288 304 67 71 350 322 204 270 267 229 186 179 172 222 245 301 341 354 242 177 155 112 82 194
294 289 291 294 315 313 335 339 339 336 339 86 339 338 320 36 105 119 331 291 260 277 281 225 254 37 26 346 145 302 324 299 280 183 163 100 123 161 224 217 178 318 330 156 131 113 209
294 288 282 302 307 335 343 342 335 328 321 171 173 262 225 313 319 317 216 256 287 289 344 352 298 192 209 326 326 331 340 324 353 5 334 117 170 162 226 209 232 239 241 265 179 200 168
303 277 294 311 328 -0 350 349 343 339 348 141 8 30 346 276 307 317 348 337 352 345 327 352 52 339 298 188 203 291 292 263 209 339 8 353 348 116 303 280 349 283 276 284 337 47 274
305 301 302 7 12 21 3 359 352 357 350 6 310 327 104 282 338 17 294 295 314 15 301 89 10 356 55 2 313 302 159 103 52 349 358 36 119 85 269 292 34 349 237 267 93 309 115
360 344 93 75 36 23 4 4 7 14 30 249 267 356 50 284 341 337 319 329 346 320 277 320 49 54 219 304 282 5 41 70 66 19 40 16 89 111 221 32 65 257 5 43 115 54 334
24 33 40 45 34 15 5 3 0 3 2 294 284 38 28 293 353 306 343 335 331 347 325 300 308 242 269 154 58 10 353 91 38 11 0 76 114 74 133 137 254 43 4 1 352 75 296
15 17 20 20 20 10 5 1 360 358 358 300 261 218 318 89 257 335 311 312 319 329 337 298 326 297 24 143 105 130 255 338 338 326 338 50 51 99 23 98 144 290 311 324 46 357 138
13 10 6 3 4 4 359 359 1 2 1 336 280 310 45 240 268 54 276 290 307 352 261 319 339 354 29 29 61 73 7 327 304 331 338 25 10 61 52 64 334 347 308 294 125 233 320
6 7 8 359 350 352 354 355 359 6 359 358 277 251 91 265 275 233 247 241 342 45 108 282 27 351 29 54 88 148 126 233 186 214 168 129 169 124 81 89 17 343 336 79 223 273 241
356 1 2 356 350 352 350 360 10 7 3 360 294 329 327 186 249 257 259 258 235 226 63 353 164 172 180 106 58 113 134 235 187 215 177 181 178 168 147 206 262 316 281 321 76 321 344